Regional Weather Roundup
Issued by NWS

Home | Current Version | Previous Version | Text Only | Print | Product List | Glossary On
Versions: 1 2 3 4 5 6 7 8 9 10 11 12 13 14 15 16 17 18 19 20 21 22 23 24 25 26 27 28 29 30 31 32 33 34 35 36 37 38 39 40 41 42 43 44 45 46 47 48 49 50
000
ASUS45 KABQ 012310
RWRNM
NEW MEXICO REGIONAL WEATHER ROUNDUP
NATIONAL WEATHER SERVICE ALBUQUERQUE NM
500 PM MDT SUN MAY 01 2016

NOTE: "FAIR" MEANS FEW OR NO CLOUDS BELOW 12,000 FEET AGL WITH NO
       SIGNIFICANT WEATHER OR OBSTRUCTIONS TO VISION.

      THIS PRODUCT IS RELEASED AS TWO VERSIONS.  ONE VERSION NEAR
      THE TOP OF THE HOUR CONTAINING PRELIMINARY DATA FROM ALBUQUERQUE
      AND OTHER STATIONS.  A FINAL VERSION WITH ADDITIONAL DATA IS
      ISSUED ABOUT 10 MINUTES AFTER THE HOUR.

NMZ501-503-504-510>518-020000-
NORTHWEST PLATEAU/NORTHCENTRAL MOUNTAINS

CITY           SKY/WX    TMP DP  RH WIND       PRES   REMARKS
FARMINGTON     LGT RAIN  46  40  79 W14       30.06R
LOS ALAMOS     FAIR      38  38 100 SW7       30.16S WCI  33
SANTA FE       FAIR      48  32  53 SE14      30.13S
TAOS           CLOUDY    37  30  75 SW7       30.16R WCI  32
ANGEL FIRE     CLOUDY    37  22  54 E3G9      30.18R

$$
NMZ402-403-502-505>509-020000-
WESTCENTRAL MOUNTAINS/SOUTHWEST MOUNTAINS

CITY           SKY/WX    TMP DP  RH WIND       PRES   REMARKS
GALLUP         LGT RAIN  43  38  82 S12       30.08R
GRANTS         CLOUDY    37  35  94 SE15G22   30.14R WCI  28
SILVER CITY      N/A     64  21  19 SW14G22   29.99R

$$
NMZ407-409-411-412-020000-
SOUTHERN DESERTS

CITY           SKY/WX    TMP DP  RH WIND       PRES   REMARKS
LORDSBURG      PTSUNNY   70  25  18 W6        29.92S
DEMING         FAIR      71  23  16 SE8       29.91R
LAS CRUCES     FAIR      66  30  25 E16G22    29.98S
HOLLOMAN AFB   FAIR      64  33  31 N17       29.99R
ALAMOGORDO     FAIR      64  32  29 NW12G23   30.00R
T OR C         CLOUDY    56  40  55 N20G28    30.00S

$$
NMZ519>523-020000-
CENTRAL VALLEYS/CENTRAL HIGHLANDS

CITY           SKY/WX    TMP DP  RH WIND       PRES   REMARKS
ALBUQUERQUE    CLOUDY    47  29  49 E29G38    30.11R
DOUBLE EAGLE   CLOUDY    45  30  57 E22G28    30.13R
MORIARTY ARPT  CLOUDY    40  29  67 E15G23    30.19R WCI  31
CLINES CORNERS CLOUDY    33  30  88 E20       30.16R WCI  21
BELEN          CLOUDY    51  28  40 NE14      30.10R
SOCORRO        CLOUDY    49  35  56 E16       30.10R

$$
NMZ524>526-539-540-020000-
SOUTHCENTRAL MOUNTAINS

CITY           SKY/WX    TMP DP  RH WIND       PRES   REMARKS
RUIDOSO          N/A     34  32  93 SE13      30.19R WCI  25

$$
NMZ527>531-020000-
NORTHEAST HIGHLANDS/NORTHEAST PLAINS

CITY           SKY/WX    TMP DP  RH WIND       PRES   REMARKS
LAS VEGAS      LGT SNOW  35  31  85 NE13      30.20S FOG     WCI  26
RATON          CLOUDY    42  26  53 N13       30.20S
CLAYTON        LGT RAIN  38  35  89 N14       30.22R WCI  30

$$
NMZ532>537-020000-
EASTCENTRAL PLAINS

CITY           SKY/WX    TMP DP  RH WIND       PRES   REMARKS
TUCUMCARI      LGT RAIN  44  39  82 NE14      30.21R
CANNON AFB     CLOUDY    41  37  85 N18       30.18S
CLOVIS AIRPORT CLOUDY    43  34  70 N18       30.20S

$$
NMZ028-029-538-020000-
SOUTHEAST PLAINS

CITY           SKY/WX    TMP DP  RH WIND       PRES   REMARKS
ROSWELL        CLOUDY    47  38  71 N13       30.18S
ARTESIA        CLOUDY    48  37  66 N20       30.18S
CARLSBAD       CLOUDY    51  37  58 N16       30.14S
HOBBS          CLOUDY    50  36  57 N17       30.14S


$$



USA.gov is the U.S. government's official web portal to all federal, state and local government web resources and services.